DW2633 Weather Reports


time (UTC)temp
C
wind
direction
speed
KPH
gust
KPH
rain 1hr
cm
rain 24hr
cm
rain mn
cm
humidity
%
barometer
mb
20260904074047 15 130 6.4 0.0 0.00 0.00 0.00 95 1009.6
20260904073549 15 129 6.4 0.0 0.00 0.00 0.00 95 1009.5
20260904073046 15 133 4.8 0.0 0.00 0.00 0.00 94 1009.4
20260904072545 15 134 6.4 0.0 0.00 0.00 0.00 94 1009.4
20260904072044 15 126 6.4 0.0 0.00 0.00 0.00 94 1009.4
20260904071544 15 125 6.4 0.0 0.00 0.00 0.00 94 1009.5
20260904071044 15 143 4.8 0.0 0.00 0.00 0.00 94 1009.6
20260904070544 15 144 4.8 0.0 0.00 0.00 0.00 94 1009.7
20260904070043 15 146 4.8 0.0 0.00 0.00 0.00 94 1009.8
20260904065542 15 137 4.8 0.0 0.00 0.00 0.00 94 1009.9
20260904065042 15 130 4.8 0.0 0.00 0.00 0.00 94 1009.7
20260904064542 15 130 4.8 0.0 0.00 0.00 0.00 94 1009.8
20260904064042 15 134 6.4 0.0 0.00 0.00 0.00 94 1009.6
20260904063544 15 135 4.8 0.0 0.00 0.00 0.00 94 1009.6
20260904063043 15 136 4.8 0.0 0.00 0.00 0.00 94 1009.6
20260904062540 15 137 4.8 0.0 0.00 0.00 0.00 94 1009.8
20260904062039 15 130 6.4 0.0 0.00 0.00 0.00 94 1009.7
20260904061544 15 123 8.0 0.0 0.00 0.00 0.00 94 1009.7
20260904061037 15 143 8.0 0.0 0.00 0.00 0.00 94 1009.8
20260904060539 15 130 8.0 0.0 0.00 0.00 0.00 94 1009.8
20260904060037 15 133 6.4 0.0 0.00 0.00 0.00 94 1009.8
20260904055537 15 130 6.4 0.0 0.00 0.00 0.00 94 1009.9
20260904055035 15 133 4.8 0.0 0.00 0.00 0.00 94 1010.0
20260904054538 15 151 3.2 0.0 0.00 0.00 0.00 94 1009.9
20260904054035 16 151 1.6 0.0 0.00 0.00 0.00 94 1009.9
20260904053536 16 152 1.6 0.0 0.00 0.00 0.00 94 1009.9
20260904053035 16 152 3.2 0.0 0.00 0.00 0.00 94 1009.9
20260904052534 16 152 4.8 0.0 0.00 0.00 0.00 94 1009.9
20260904052034 16 152 4.8 0.0 0.00 0.00 0.00 94 1009.9
20260904051535 16 132 4.8 0.0 0.00 0.00 0.00 94 1009.9
20260904051032 16 128 6.4 0.0 0.00 0.00 0.00 94 1009.9
20260904050533 16 128 4.8 0.0 0.00 0.00 0.00 94 1010.0
20260904050031 16 128 3.2 0.0 0.00 0.00 0.00 94 1010.1
20260904045531 16 129 4.8 0.0 0.00 0.00 0.00 93 1010.2
20260904045031 16 130 6.4 0.0 0.00 0.00 0.00 93 1010.3
20260904044542 16 130 6.4 0.0 0.00 0.00 0.00 94 1010.4
20260904044029 16 132 4.8 0.0 0.00 0.00 0.00 93 1010.4
20260904043529 16 134 1.6 0.0 0.00 0.00 0.00 93 1010.5
20260904043035 16 132 0.0 0.0 0.00 0.00 0.00 93 1010.5
20260904042531 16 134 0.0 0.0 0.00 0.00 0.00 93 1010.5
20260904042028 16 134 3.2 0.0 0.00 0.00 0.00 93 1010.6
20260904041527 16 134 3.2 0.0 0.00 0.00 0.00 93 1010.5
20260904041026 16 132 3.2 0.0 0.00 0.00 0.00 93 1010.5
20260904040525 16 131 6.4 0.0 0.00 0.00 0.00 93 1010.4
20260904040025 16 130 6.4 0.0 0.00 0.00 0.00 93 1010.5
20260904035523 17 134 4.8 0.0 0.00 0.00 0.00 93 1010.5
20260904035024 17 145 4.8 0.0 0.00 0.00 0.00 93 1010.4
20260904034523 17 145 1.6 0.0 0.00 0.00 0.00 93 1010.5
20260904034024 17 145 1.6 0.0 0.00 0.00 0.00 92 1010.6
20260904033523 17 140 4.8 0.0 0.00 0.00 0.00 92 1010.6
20260904033023 17 133 6.4 0.0 0.00 0.00 0.00 92 1010.6
20260904032522 17 132 6.4 0.0 0.00 0.00 0.00 93 1010.6
20260904032022 17 134 4.8 0.0 0.00 0.00 0.00 93 1010.6
20260904031522 17 132 3.2 0.0 0.00 0.00 0.00 92 1010.5
20260904031023 17 148 3.2 0.0 0.00 0.00 0.00 92 1010.4
20260904030522 17 148 6.4 0.0 0.00 0.00 0.00 92 1010.4
20260904030023 17 126 6.4 0.0 0.00 0.00 0.00 92 1010.5
20260904025522 17 134 6.4 0.0 0.00 0.00 0.00 92 1010.6
20260904025024 17 136 6.4 0.0 0.00 0.00 0.00 92 1010.6
20260904024522 17 126 6.4 0.0 0.00 0.00 0.00 92 1010.7
20260904024023 17 132 4.8 0.0 0.00 0.00 0.00 92 1010.8
20260904023521 17 142 4.8 0.0 0.00 0.00 0.00 92 1010.9
20260904023021 18 132 6.4 0.0 0.00 0.00 0.00 92 1010.8
20260904022521 18 132 4.8 0.0 0.00 0.00 0.00 92 1010.9
20260904022021 18 134 3.2 0.0 0.00 0.00 0.00 92 1010.9
20260904021525 18 134 4.8 0.0 0.00 0.00 0.00 91 1011.0
20260904021023 18 132 4.8 0.0 0.00 0.00 0.00 92 1011.0
20260904020521 18 132 6.4 0.0 0.00 0.00 0.00 91 1010.9
20260904020021 18 131 6.4 0.0 0.00 0.00 0.00 92 1011.0
20260904015520 18 128 6.4 0.0 0.00 0.00 0.00 91 1011.0
20260904015020 18 135 6.4 0.0 0.00 0.00 0.00 91 1010.9
20260904014520 18 129 4.8 0.0 0.00 0.00 0.00 91 1010.9
20260904014020 18 138 4.8 0.0 0.00 0.00 0.00 91 1011.0
20260904013519 18 137 6.4 0.0 0.00 0.00 0.00 91 1011.0
20260904013020 18 121 8.0 0.0 0.00 0.00 0.00 91 1011.1
20260904012519 18 132 6.4 0.0 0.00 0.00 0.00 91 1011.1
20260904012019 18 136 3.2 0.0 0.00 0.00 0.00 91 1011.2
20260904011520 18 136 1.6 0.0 0.00 0.00 0.00 90 1011.1
20260904011019 19 136 4.8 0.0 0.00 0.00 0.00 90 1011.1
20260904010519 19 136 4.8 0.0 0.00 0.00 0.00 90 1011.1
20260904010020 19 137 4.8 0.0 0.00 0.00 0.00 90 1011.0
20260904005518 19 139 3.2 0.0 0.00 0.00 0.00 89 1011.1
20260904005018 19 141 1.6 0.0 0.00 0.00 0.00 89 1011.0
20260904004518 19 141 1.6 0.0 0.00 0.00 0.00 89 1011.0
20260904004018 20 141 3.2 0.0 0.00 0.00 0.00 89 1010.8
20260904003520 20 141 3.2 0.0 0.00 0.00 0.00 89 1010.8
20260904003017 20 140 3.2 0.0 0.00 0.00 0.00 89 1010.8
20260904002520 20 140 4.8 0.0 0.00 0.00 0.00 88 1010.8
20260904002017 20 140 4.8 0.0 0.00 0.00 0.00 88 1011.0
20260904001516 20 141 4.8 0.0 0.00 0.00 0.00 88 1010.7
20260904001016 20 142 3.2 0.0 0.00 0.00 0.00 87 1010.7
20260904000516 20 142 4.8 0.0 0.00 0.00 0.00 88 1010.5
20260904000018 20 142 3.2 0.0 0.00 0.00 0.00 87 1010.5
20260903235516 20 150 0.0 0.0 0.00 0.00 0.00 86 1010.5
20260903235017 21 241 0.0 0.0 0.00 0.00 0.00 85 1010.4
20260903234524 21 276 1.6 0.0 0.00 0.00 0.00 83 1010.4
20260903234017 21 276 4.8 0.0 0.00 0.00 0.00 82 1010.1
20260903233516 21 276 8.0 0.0 0.00 0.00 0.00 83 1010.0
20260903233015 22 273 8.0 0.0 0.00 0.00 0.00 83 1010.0
20260903232515 22 278 8.0 0.0 0.00 0.00 0.00 84 1010.0
20260903232017 22 275 8.0 0.0 0.00 0.00 0.00 84 1010.0
20260903231515 22 273 9.7 0.0 0.00 0.00 0.00 83 1010.0
20260903231014 22 273 11.3 0.0 0.00 0.00 0.00 83 1010.0
20260903230514 22 273 11.3 0.0 0.00 0.00 0.00 83 1010.0
20260903230015 23 269 12.9 0.0 0.00 0.00 0.00 82 1010.1
20260903225519 23 267 12.9 0.0 0.00 0.00 0.00 82 1010.1
20260903225014 23 266 11.3 0.0 0.00 0.00 0.00 82 1010.1
20260903224523 23 263 11.3 0.0 0.00 0.00 0.00 80 1010.0
20260903224015 23 271 14.5 0.0 0.00 0.00 0.00 80 1010.1
20260903223515 23 269 17.7 0.0 0.00 0.00 0.00 79 1010.2
20260903223017 24 275 17.7 0.0 0.00 0.00 0.00 77 1010.1
20260903222517 24 269 17.7 0.0 0.00 0.00 0.00 77 1010.1
20260903222013 24 280 19.3 0.0 0.00 0.00 0.00 74 1010.1
20260903221514 25 274 20.9 0.0 0.00 0.00 0.00 74 1009.9
20260903221012 25 275 19.3 0.0 0.00 0.00 0.00 73 1009.9
20260903220513 25 273 14.5 0.0 0.00 0.00 0.00 74 1010.0
20260903220013 25 267 11.3 0.0 0.00 0.00 0.00 75 1010.0
20260903215515 25 267 12.9 0.0 0.00 0.00 0.00 75 1010.0
20260903215013 25 264 14.5 0.0 0.00 0.00 0.00 74 1010.1
20260903214514 26 269 16.1 0.0 0.00 0.00 0.00 74 1010.0
20260903214012 26 273 17.7 0.0 0.00 0.00 0.00 71 1010.1
20260903213513 26 279 20.9 0.0 0.00 0.00 0.00 69 1009.8
20260903213010 26 280 19.3 0.0 0.00 0.00 0.00 73 1010.0
20260903212511 26 261 17.7 0.0 0.00 0.00 0.00 70 1010.0
20260903212010 26 262 22.5 0.0 0.00 0.00 0.00 71 1010.1
20260903211509 26 267 25.7 0.0 0.00 0.00 0.00 68 1009.9
20260903211009 26 266 24.1 0.0 0.00 0.00 0.00 70 1010.1
20260903210509 26 271 22.5 0.0 0.00 0.00 0.00 71 1010.0
20260903210009 26 260 20.9 0.0 0.00 0.00 0.00 72 1009.9
20260903205512 26 266 20.9 0.0 0.00 0.00 0.00 72 1009.9
20260903205008 26 264 20.9 0.0 0.00 0.00 0.00 72 1010.2
20260903204508 26 275 19.3 0.0 0.00 0.00 0.00 73 1010.2
20260903204009 26 269 22.5 0.0 0.00 0.00 0.00 69 1010.4
20260903203506 26 273 24.1 0.0 0.00 0.00 0.00 71 1010.5
20260903203013 26 268 24.1 0.0 0.00 0.00 0.00 71 1010.2
20260903202508 26 255 20.9 0.0 0.00 0.00 0.00 72 1010.0
20260903202005 26 264 20.9 0.0 0.00 0.00 0.00 72 1010.0
20260903201505 26 259 17.7 0.0 0.00 0.00 0.00 77 1010.0
20260903201004 26 232 16.1 0.0 0.00 0.00 0.00 75 1010.1
20260903200504 26 250 22.5 0.0 0.00 0.00 0.00 73 1010.0
20260903200005 26 265 25.7 0.0 0.00 0.00 0.00 75 1010.0
20260903195503 26 265 24.1 0.0 0.00 0.00 0.00 75 1010.0
20260903195003 26 265 22.5 0.0 0.00 0.00 0.00 74 1010.0
20260903194505 26 257 24.1 0.0 0.00 0.00 0.00 75 1010.1
20260903194101 26 269 24.1 0.0 0.00 0.00 0.00 77 1010.3
20260903193559 26 234 22.5 0.0 0.00 0.00 0.00 77 1010.5
20260903193059 26 251 20.9 0.0 0.00 0.00 0.00 78 1010.4
20260903192558 26 239 20.9 0.0 0.00 0.00 0.00 78 1010.4
20260903192057 25 265 19.3 0.0 0.00 0.00 0.00 78 1010.4
20260903191600 25 271 17.7 0.0 0.00 0.00 0.00 80 1010.4
20260903191056 25 270 17.7 0.0 0.00 0.00 0.00 79 1010.3
20260903190555 25 236 22.5 0.0 0.00 0.00 0.00 81 1010.3
20260903190054 25 258 24.1 0.0 0.00 0.00 0.00 80 1010.4
20260903185553 25 236 22.5 0.0 0.00 0.00 0.00 83 1010.4
20260903185052 25 265 17.7 0.0 0.00 0.00 0.00 84 1010.5
20260903184557 25 268 12.9 0.0 0.00 0.00 0.00 84 1010.5
20260903184050 24 281 9.7 0.0 0.00 0.00 0.00 84 1010.6
20260903183548 24 248 8.0 0.0 0.00 0.00 0.00 87 1010.6
20260903183051 23 236 6.4 0.0 0.00 0.00 0.00 87 1010.7
20260903182548 23 240 4.8 0.0 0.00 0.00 0.00 87 1010.6
20260903182044 23 231 4.8 0.0 0.00 0.00 0.00 84 1010.6
20260903181544 23 221 6.4 0.0 0.00 0.00 0.00 87 1010.6
20260903181043 23 221 6.4 0.0 0.00 0.00 0.00 86 1010.7
20260903180543 23 233 8.0 0.0 0.00 0.00 0.00 87 1010.7
20260903180049 23 249 9.7 0.0 0.00 0.00 0.00 87 1010.7
20260903175541 23 229 8.0 0.0 0.00 0.00 0.00 87 1010.8
20260903175040 22 220 6.4 0.0 0.00 0.00 0.00 88 1010.8
20260903174540 22 237 8.0 0.0 0.00 0.00 0.00 90 1010.8
20260903174039 22 253 9.7 0.0 0.00 0.00 0.00 90 1010.8
20260903173536 22 225 8.0 0.0 0.00 0.00 0.00 90 1010.8
20260903173035 22 227 6.4 0.0 0.00 0.00 0.00 91 1011.1
20260903172535 22 249 6.4 0.0 0.00 0.00 0.00 90 1011.1
20260903172035 22 247 6.4 0.0 0.00 0.00 0.00 90 1011.3
20260903171535 22 254 8.0 0.0 0.00 0.00 0.00 91 1011.3
20260903171034 22 243 11.3 0.0 0.00 0.00 0.00 90 1011.3
20260903170537 22 230 14.5 0.0 0.00 0.00 0.00 90 1011.3
20260903170037 22 262 14.5 0.0 0.00 0.00 0.00 91 1011.2
20260903165533 22 260 17.7 0.0 0.00 0.00 0.00 91 1011.2
20260903165034 22 255 20.9 0.0 0.00 0.00 0.00 91 1011.4
20260903164533 22 243 19.3 0.0 0.00 0.00 0.00 90 1011.4
20260903164033 22 263 11.3 0.0 0.00 0.00 0.00 92 1011.4
20260903163531 22 246 6.4 0.0 0.00 0.00 0.00 92 1011.2
20260903163033 22 244 6.4 0.0 0.00 0.00 0.00 91 1011.4
20260903162533 22 229 4.8 0.0 0.00 0.00 0.00 91 1011.4
20260903162031 22 188 3.2 0.0 0.00 0.00 0.00 92 1011.4
20260903161529 22 226 1.6 0.0 0.00 0.00 0.00 92 1011.5
20260903161029 21 225 1.6 0.0 0.00 0.00 0.00 91 1011.5
20260903160529 21 230 3.2 0.0 0.00 0.00 0.00 92 1011.7
20260903160028 21 242 3.2 0.0 0.00 0.00 0.00 91 1011.8
20260903155526 21 223 3.2 0.0 0.00 0.00 0.00 92 1011.9
20260903155026 21 224 4.8 0.0 0.00 0.00 0.00 92 1011.9
20260903154526 21 224 4.8 0.0 0.00 0.00 0.00 92 1011.9
20260903154028 21 250 4.8 0.0 0.00 0.00 0.00 92 1011.9
20260903153524 21 215 4.8 0.0 0.00 0.00 0.00 93 1011.8
20260903153023 21 230 6.4 0.0 0.00 0.00 0.00 92 1011.9
20260903152523 21 226 6.4 0.0 0.00 0.00 0.00 93 1012.0
20260903152023 21 234 6.4 0.0 0.00 0.00 0.00 93 1011.9
20260903151521 21 233 6.4 0.0 0.00 0.00 0.00 92 1011.8
20260903151021 21 235 8.0 0.0 0.00 0.00 0.00 93 1011.9
20260903150521 21 227 9.7 0.0 0.00 0.00 0.00 93 1011.9
20260903150028 21 252 9.7 0.0 0.00 0.00 0.00 93 1011.9
20260903145520 21 222 8.0 0.0 0.00 0.00 0.00 94 1012.0
20260903145019 21 227 6.4 0.0 0.00 0.00 0.00 93 1011.9
20260903144519 21 242 6.4 0.0 0.00 0.00 0.00 94 1011.9
20260903144023 20 223 4.8 0.0 0.00 0.00 0.00 94 1011.8
20260903143518 20 233 3.2 0.0 0.00 0.00 0.00 94 1011.8
20260903143037 20 224 3.2 0.0 0.00 0.00 0.00 94 1011.7
20260903142516 20 214 3.2 0.0 0.00 0.00 0.00 95 1011.7
20260903142016 20 215 4.8 0.0 0.00 0.00 0.00 95 1011.7
20260903141514 20 217 4.8 0.0 0.00 0.00 0.00 95 1011.7
20260903141014 20 225 4.8 0.0 0.00 0.00 0.00 95 1011.8
20260903140517 20 226 4.8 0.0 0.00 0.00 0.00 95 1011.8
20260903140019 20 224 3.2 0.0 0.00 0.00 0.00 96 1011.9
20260903135512 20 223 3.2 0.0 0.00 0.00 0.00 96 1011.8
20260903135012 20 212 3.2 0.0 0.00 0.00 0.00 96 1011.9
20260903134510 19 229 1.6 0.0 0.00 0.00 0.00 96 1012.0
20260903134011 19 165 1.6 0.0 0.00 0.00 0.00 96 1011.9
20260903133508 19 202 1.6 0.0 0.00 0.00 0.00 96 1011.8
20260903133012 19 229 3.2 0.0 0.00 0.00 0.00 96 1011.9
20260903132508 19 232 3.2 0.0 0.00 0.00 0.00 97 1011.8
20260903132006 19 241 3.2 0.0 0.00 0.00 0.00 97 1011.9
20260903131506 18 224 1.6 0.0 0.00 0.00 0.00 97 1011.9
20260903131006 18 193 1.6 0.0 0.00 0.00 0.00 97 1012.0
20260903130504 18 188 1.6 0.0 0.00 0.00 0.00 97 1012.0
20260903130003 18 202 0.0 0.0 0.00 0.00 0.00 97 1012.1
20260903125503 18 223 1.6 0.0 0.00 0.00 0.00 97 1012.0
20260903125004 18 223 3.2 0.0 0.00 0.00 0.00 97 1012.2
20260903124504 18 223 3.2 0.0 0.00 0.00 0.00 97 1012.2
20260903124002 18 219 3.2 0.0 0.00 0.00 0.00 97 1012.1
20260903123504 18 225 1.6 0.0 0.00 0.00 0.00 97 1012.1
20260903123100 18 183 0.0 0.0 0.00 0.00 0.00 97 1012.1
20260903122602 18 178 0.0 0.0 0.00 0.00 0.00 97 1012.1
20260903122059 17 161 1.6 0.0 0.00 0.00 0.00 97 1012.2
20260903121559 17 163 0.0 0.0 0.00 0.00 0.00 97 1012.2
20260903121057 17 219 0.0 0.0 0.00 0.00 0.00 97 1012.3
20260903120557 17 219 1.6 0.0 0.00 0.00 0.00 97 1012.3
20260903120057 17 219 0.0 0.0 0.00 0.00 0.00 97 1012.3
20260903115556 17 219 0.0 0.0 0.00 0.00 0.00 97 1012.4
20260903115056 17 219 0.0 0.0 0.00 0.00 0.00 97 1012.3
20260903114556 17 219 0.0 0.0 0.00 0.00 0.00 97 1012.3
20260903114055 17 219 1.6 0.0 0.00 0.00 0.00 97 1012.2
20260903113554 17 219 1.6 0.0 0.00 0.00 0.00 97 1012.2
20260903113054 17 219 1.6 0.0 0.00 0.00 0.00 97 1012.4
20260903112556 17 218 1.6 0.0 0.00 0.00 0.00 97 1012.4
20260903112054 17 217 1.6 0.0 0.00 0.00 0.00 96 1012.4
20260903111603 17 217 3.2 0.0 0.00 0.00 0.00 96 1012.4
20260903111053 17 221 3.2 0.0 0.00 0.00 0.00 96 1012.5
20260903110556 17 220 3.2 0.0 0.00 0.00 0.00 96 1012.5
20260903110053 17 219 3.2 0.0 0.00 0.00 0.00 96 1012.5
20260903105553 17 218 1.6 0.0 0.00 0.00 0.00 96 1012.4
20260903105053 17 202 0.0 0.0 0.00 0.00 0.00 96 1012.5
20260903104554 17 148 0.0 0.0 0.00 0.00 0.00 96 1012.4
20260903104053 17 148 1.6 0.0 0.00 0.00 0.00 96 1012.4
20260903103552 17 148 1.6 0.0 0.00 0.00 0.00 96 1012.2
20260903103052 17 148 1.6 0.0 0.00 0.00 0.00 96 1012.2
20260903102553 17 148 0.0 0.0 0.00 0.00 0.00 96 1012.2
20260903102051 17 148 0.0 0.0 0.00 0.00 0.00 96 1012.1
20260903101557 17 148 0.0 0.0 0.00 0.00 0.00 96 1012.2
20260903101051 17 148 0.0 0.0 0.00 0.00 0.00 96 1012.2
20260903100551 17 148 1.6 0.0 0.00 0.00 0.00 96 1012.2
20260903100054 17 148 4.8 0.0 0.00 0.00 0.00 96 1012.3
20260903095550 17 149 6.4 0.0 0.00 0.00 0.00 96 1012.3
20260903095050 17 139 6.4 0.0 0.00 0.00 0.00 96 1012.3
20260903094556 17 134 6.4 0.0 0.00 0.00 0.00 96 1012.2
20260903094051 17 141 8.0 0.0 0.00 0.00 0.00 96 1012.2
20260903093621 17 136 8.0 0.0 0.00 0.00 0.00 96 1012.1
20260903093057 17 134 6.4 0.0 0.00 0.00 0.00 96 1012.2
20260903092551 17 134 6.4 0.0 0.00 0.00 0.00 96 1012.3
20260903092049 17 134 6.4 0.0 0.00 0.00 0.00 96 1012.2
20260903091549 17 137 6.4 0.0 0.00 0.00 0.00 96 1012.1
20260903091049 17 138 6.4 0.0 0.00 0.00 0.00 96 1012.0
20260903090549 17 136 4.8 0.0 0.00 0.00 0.00 96 1011.9
20260903090049 17 144 3.2 0.0 0.00 0.00 0.00 96 1012.1
20260903085548 17 163 6.4 0.0 0.00 0.00 0.00 96 1012.2
20260903085049 17 138 6.4 0.0 0.00 0.00 0.00 96 1012.0
20260903084548 17 137 6.4 0.0 0.00 0.00 0.00 96 1012.1
20260903084048 17 134 6.4 0.0 0.00 0.00 0.00 96 1012.1
20260903083547 17 152 6.4 0.0 0.00 0.00 0.00 96 1012.1
20260903083052 17 135 8.0 0.0 0.00 0.00 0.00 96 1012.2
20260903082548 17 137 6.4 0.0 0.00 0.00 0.00 96 1012.4
20260903082045 17 140 6.4 0.0 0.00 0.00 0.00 96 1012.4
20260903081548 17 131 6.4 0.0 0.00 0.00 0.00 96 1012.2
20260903081045 17 151 6.4 0.0 0.00 0.00 0.00 96 1012.3
20260903080548 17 137 8.0 0.0 0.00 0.00 0.00 96 1012.3
20260903080048 17 133 9.7 0.0 0.00 0.00 0.00 96 1012.3
20260903075544 17 135 11.3 0.0 0.00 0.00 0.00 96 1012.3
20260903075044 17 135 9.7 0.0 0.00 0.00 0.00 96 1012.2
20260903074545 17 132 9.7 0.0 0.00 0.00 0.00 96 1012.3